TDRS 13

导读 | 星芒AI

TDRS 13(Tracking and Data Relay Satellite 13)是美国国家航空航天局(NASA)的第三代天基中继卫星系统(TDRS)的一部分,由SpaceX于2017年11月23日通过猎鹰9号火箭发射。该卫星位于地球静止轨道,旨在增强与国际空间站、航天器及其他NASA任务之间的通信能力。TDRS 13 提供高速数据传输、语音通信和遥测服务,是NASA空间通信网络的重要组成部分,确保任务数据的实时回传与指挥控制的连续性。

基本信息
目录编号:
42915
目录名称:
TDRS 13
国际标识:
2017-047A
轨道中心:
EARTH
卫星名称:
TDRS 13
卫星全名:
--
卫星状态:
在轨 (已飞行2998 天)
发射日期:
2017-08-18 UTC
国别 :
美国 (US)
星等 :
--
轨道信息
数据来源 国际轨道数据 AOE轨道数据
星历时间 2025-11-02T17:26:03+0800
14小时前
查看轨道信息
2025-11-02T09:00:00+0800
22小时前
查看轨道信息
半长轴 42164.784km 42164.756km
偏心率 0.0011665 0.0011604
轨道倾角 3.427° 3.426°
近地点辐角 130.287° 130.411°
升交点赤经 356.844° 356.836°
平近点角 44.788° 277.816°
近地点 35737.463km 35737.693km
远地点 35835.835km 35835.549km
周期 1436.100分钟 1436.098分钟
每日圈数 1.002716 1.002717
详细信息
使用方式:
暂无
2D轨道图
3D轨道图
轨道高度分析图
轨道倾角分析图
轨道综合分析图
查看轨道综合分析图